Weather in Borovskoye

Russia / Kurgan Oblast     55°48′03″N   65°45′04″E
temp.,
°C
wind,
m/s
gust,
m/s
humid.,
%
clouds,
%
prec.,
mm/h
press.,
hPa
HPBL,
m
8 march, mon
mon823:00−10nnw51094100 3.3 1001407
02:00−11nw5109493 0.1 1005373
05:00−16wnw369692 0.2 100892
08:00−19w36971 0.0 1009100
11:00−14wsw359121 0.0 1011282
14:00−11sw598682 0.0 1011586
17:00−10ssw6128492 0.0 1010658
20:00−10ssw61492100 0.2 1009635
9 march, tue
tue923:00−7ssw71593100 0.4 1008717
02:00−7sw81589100 0.1 1007629
05:00−7ssw61491100 0.1 1008451
08:00−6ssw81592100 0.1 1007601
11:00−5ssw91592100 0.6 1007809
14:00−4sw101590100 0.2 10061090
17:00−3wsw6147294 0.5 10071008
20:00−8wnw369263 0.0 101091
10 march, wed
wed1023:00−12sw239134 0.0 101321
02:00−12ssw2391100 0.0 101221
05:00−12sse2290100 0.0 101121
08:00−11se3491100 0.0 1009100
11:00−7ese3690100 0.0 1007296
14:00−5e4690100 0.0 1004491
17:00−6e4692100 0.1 1002508
20:00−7e4895100 0.4 1001318
11 march, thu
thu1123:00−8e4994100 1.0 1000350
02:00−9ene4895100 0.6 1000321
05:00−10sse2696100 1.9 1002300
08:00−16ssw61093100 0.5 1003305
11:00−15ssw4793100 0.6 1004394
14:00−13ssw3489100 0.1 1005496
17:00−13wsw2393100 0.3 1006300
20:00−15nnw4896100 0.3 1007399
12 march, fri
fri1223:00−17nnw4995100 0.5 1009518
02:00−20nw4897100 0.2 1011356
05:00−24wnw4896100 0.3 1014210
08:00−28wnw369642 0.0 1017106
11:00−23wnw359221 0.0 1019291
14:00−19wnw46860 0.0 1020416
17:00−18wnw24850 0.0 1021254
20:00−21ssw23930 0.0 102322